Weather History for KD55 - March, 2014

Change the Weather History Date:

Tuesday, March 25, 2014

  Actual Average (KDVL) Record (KDVL)
Temperature  
Mean Temperature 11 °F -  
Max Temperature 21 °F 38 °F 69 °F (2007)
Min Temperature 1 °F 22 °F -18 °F (1964)
Degree Days  
Heating Degree Days 54    
Moisture  
Dew Point 2 °F    
Average Humidity 69    
Maximum Humidity 85    
Minimum Humidity 49    
Precipitation  
Precipitation 0.00 in - - ()
Sea Level Pressure  
Sea Level Pressure 30.13 in    
Wind  
Wind Speed 14 mph (WNW)    
Max Wind Speed 21 mph    
Max Gust Speed 26 mph    
Visibility 10 miles    
Events      
Averages and records for this station are not official NWS values.
T = Trace of Precipitation, MM = Missing Value Source: NWS Daily Summary

Daily Weather History Graph

Daily Weather History Graph

Search for Another Location

Airport or City:

Trip Planner

Search our weather history database for the weather conditions in past years. The results will help you decide how hot, cold, wet, or windy it might be!

Date:

Astronomy

Mar. 25, 2014 Rise Set
Actual Time 7:25 AM CDT 7:54 PM CDT
Civil Twilight 6:54 AM CDT 8:25 PM CDT
Nautical Twilight 6:16 AM CDT 9:03 PM CDT
Astronomical Twilight 5:37 AM CDT 9:42 PM CDT
Moon 4:13 AM CDT (3/25) 2:02 PM CDT (3/25)
Length of Visible Light 13h 31m
Length of Day
12h 28m
Waning Crescent, 32% of the Moon is Illuminated
Mar 25
Waning Crescent
Mar 30
New
Apr 7
First Quarter
Apr 15
Full
Apr 22
Last Quarter

Hourly Weather History & Observations

Time (CDT) Temp. Windchill Dew Point Humidity Pressure Visibility Wind Dir Wind Speed Gust Speed Precip Events Conditions
12:15 AM 6.8 °F -12.9 °F -0.4 °F 72% 30.22 in 10.0 mi NW 19.6 mph 25.3 mph N/A   Clear
12:35 AM 6.8 °F -13.4 °F -0.4 °F 72% 30.22 in 10.0 mi NW 20.7 mph 26.5 mph N/A   Clear
12:55 AM 6.8 °F -12.4 °F -0.4 °F 72% 30.22 in 10.0 mi NW 18.4 mph - N/A   Clear
1:15 AM 6.8 °F -11.8 °F -0.4 °F 72% 30.22 in 10.0 mi NW 17.3 mph 23.0 mph N/A   Clear
1:35 AM 5.0 °F -13.0 °F -0.4 °F 78% 30.22 in 10.0 mi NW 15.0 mph - N/A   Clear
1:55 AM 5.0 °F -14.2 °F -0.4 °F 78% 30.23 in 10.0 mi NW 17.3 mph - N/A   Clear
2:15 AM 5.0 °F -13.6 °F -0.4 °F 78% 30.22 in 10.0 mi NW 16.1 mph 21.9 mph N/A   Clear
2:35 AM 5.0 °F -13.0 °F -0.4 °F 78% 30.22 in 10.0 mi NW 15.0 mph - N/A   Clear
2:55 AM 3.2 °F -13.9 °F -0.4 °F 85% 30.23 in 10.0 mi NW 12.7 mph - N/A   Clear
3:15 AM 3.2 °F -14.6 °F -0.4 °F 85% 30.23 in 10.0 mi NW 13.8 mph - N/A   Clear
3:35 AM 3.2 °F -12.2 °F -2.2 °F 78% 30.23 in 10.0 mi WNW 10.4 mph - N/A   Clear
3:55 AM 3.2 °F -13.9 °F -2.2 °F 78% 30.23 in 10.0 mi WNW 12.7 mph - N/A   Clear
4:15 AM 3.2 °F -13.9 °F -2.2 °F 78% 30.23 in 10.0 mi WNW 12.7 mph - N/A   Clear
4:35 AM 1.4 °F -14.5 °F -2.2 °F 85% 30.22 in 10.0 mi WNW 10.4 mph 21.9 mph N/A   Clear
4:55 AM 1.4 °F -15.3 °F -2.2 °F 85% 30.22 in 10.0 mi WNW 11.5 mph - N/A   Clear
5:15 AM 1.4 °F -16.9 °F -2.2 °F 85% 30.22 in 10.0 mi WNW 13.8 mph - N/A   Clear
5:35 AM 1.4 °F -15.3 °F -2.2 °F 85% 30.22 in 10.0 mi WNW 11.5 mph - N/A   Clear
5:55 AM 1.4 °F -16.1 °F -2.2 °F 85% 30.22 in 10.0 mi WNW 12.7 mph - N/A   Clear
6:15 AM 1.4 °F -15.3 °F -2.2 °F 85% 30.21 in 10.0 mi NW 11.5 mph - N/A   Clear
6:35 AM 1.4 °F -16.1 °F -2.2 °F 85% 30.21 in 10.0 mi NW 12.7 mph - N/A   Clear
6:55 AM 1.4 °F -14.5 °F -2.2 °F 85% 30.21 in 10.0 mi NW 10.4 mph - N/A   Clear
7:15 AM 1.4 °F -15.3 °F -4.0 °F 78% 30.20 in 10.0 mi NW 11.5 mph - N/A   Clear
7:35 AM 1.4 °F -15.3 °F -2.2 °F 85% 30.21 in 10.0 mi WNW 11.5 mph - N/A   Clear
7:55 AM 1.4 °F -16.1 °F -2.2 °F 85% 30.21 in 10.0 mi WNW 12.7 mph - N/A   Clear
8:15 AM 1.4 °F -15.3 °F -2.2 °F 85% 30.21 in 10.0 mi WNW 11.5 mph - N/A   Clear
8:35 AM 3.2 °F -13.1 °F -2.2 °F 78% 30.21 in 10.0 mi West 11.5 mph - N/A   Clear
8:55 AM 5.0 °F -10.8 °F -2.2 °F 72% 30.21 in 10.0 mi NW 11.5 mph - N/A   Clear
9:15 AM 5.0 °F -8.1 °F -0.4 °F 78% 30.20 in 10.0 mi NW 8.1 mph - N/A   Clear
9:35 AM 6.8 °F -9.3 °F -0.4 °F 72% 30.20 in 10.0 mi NW 12.7 mph - N/A   Clear
9:55 AM 8.6 °F -7.7 °F -0.4 °F 67% 30.20 in 10.0 mi WNW 13.8 mph - N/A   Clear
10:15 AM 10.4 °F -5.4 °F -0.4 °F 62% 30.20 in 10.0 mi WNW 13.8 mph - N/A   Clear
10:35 AM 10.4 °F -4.1 °F 1.4 °F 67% 30.20 in 10.0 mi WNW 11.5 mph - N/A   Clear
10:55 AM 12.2 °F -1.8 °F 1.4 °F 62% 30.19 in 10.0 mi WNW 11.5 mph - N/A   Clear
11:15 AM 14.0 °F -0.8 °F 1.4 °F 57% 30.19 in 10.0 mi WNW 13.8 mph - N/A   Clear
11:35 AM 15.8 °F 0.3 °F 3.2 °F 58% 30.19 in 10.0 mi WNW 16.1 mph 20.7 mph N/A   Clear
11:55 AM 15.8 °F 0.3 °F 1.4 °F 53% 30.19 in 10.0 mi WNW 16.1 mph - N/A   Clear
12:15 PM 15.8 °F 0.3 °F 1.4 °F 53% 30.18 in 10.0 mi WNW 16.1 mph 21.9 mph N/A   Clear
12:35 PM 17.6 °F 2.2 °F 1.4 °F 49% 30.18 in 10.0 mi NW 17.3 mph - N/A   Clear
12:55 PM 17.6 °F 3.2 °F 1.4 °F 49% 30.17 in 10.0 mi WNW 15.0 mph 24.2 mph N/A   Clear
1:15 PM 17.6 °F 3.2 °F 1.4 °F 49% 30.16 in 10.0 mi WNW 15.0 mph 20.7 mph N/A   Clear
1:35 PM 17.6 °F 1.7 °F 1.4 °F 49% 30.15 in 10.0 mi WNW 18.4 mph 25.3 mph N/A   Clear
1:55 PM 19.4 °F 3.6 °F 5.0 °F 54% 30.15 in 10.0 mi WNW 19.6 mph - N/A   Clear
2:15 PM 19.4 °F 4.1 °F 3.2 °F 49% 30.14 in 10.0 mi WNW 18.4 mph 24.2 mph N/A   Clear
2:35 PM 19.4 °F 6.6 °F 3.2 °F 49% 30.13 in 10.0 mi NW 12.7 mph 26.5 mph N/A   Clear
2:55 PM 19.4 °F 5.5 °F 5.0 °F 54% 30.11 in 10.0 mi WNW 15.0 mph 18.4 mph N/A   Clear
3:15 PM 19.4 °F 5.5 °F 5.0 °F 54% 30.11 in 10.0 mi NW 15.0 mph - N/A   Clear
3:35 PM 19.4 °F 4.5 °F 5.0 °F 54% 30.11 in 10.0 mi West 17.3 mph - N/A   Clear
3:55 PM 21.2 °F 8.3 °F 5.0 °F 50% 30.10 in 10.0 mi NW 13.8 mph 18.4 mph N/A   Clear
4:15 PM 21.2 °F 8.9 °F 5.0 °F 50% 30.09 in 10.0 mi WNW 12.7 mph 18.4 mph N/A   Clear
4:35 PM 21.2 °F 8.9 °F 5.0 °F 50% 30.08 in 10.0 mi WNW 12.7 mph 17.3 mph N/A   Clear
4:55 PM 21.2 °F 9.5 °F 5.0 °F 50% 30.08 in 10.0 mi WNW 11.5 mph - N/A   Clear
5:15 PM 21.2 °F 9.5 °F 5.0 °F 50% 30.07 in 10.0 mi WNW 11.5 mph 16.1 mph N/A   Clear
5:35 PM 21.2 °F 8.9 °F 5.0 °F 50% 30.07 in 10.0 mi NW 12.7 mph - N/A   Clear
5:55 PM 21.2 °F 10.9 °F 5.0 °F 50% 30.06 in 10.0 mi NW 9.2 mph - N/A   Clear
6:15 PM 19.4 °F 9.5 °F 5.0 °F 54% 30.06 in 10.0 mi WNW 8.1 mph - N/A   Clear
6:35 PM 19.4 °F 7.9 °F 5.0 °F 54% 30.05 in 10.0 mi WNW 10.4 mph - N/A   Clear
6:55 PM 19.4 °F 9.5 °F 5.0 °F 54% 30.04 in 10.0 mi WNW 8.1 mph - N/A   Clear
7:15 PM 17.6 °F 8.2 °F 5.0 °F 58% 30.03 in 10.0 mi WNW 6.9 mph - N/A   Clear
7:35 PM 15.8 °F 6.1 °F 5.0 °F 62% 30.02 in 10.0 mi WNW 6.9 mph - N/A   Clear
7:55 PM 15.8 °F 8.6 °F 5.0 °F 62% 30.01 in 10.0 mi West 4.6 mph - N/A   Clear
8:15 PM 14.0 °F 6.5 °F 5.0 °F 67% 30.00 in 10.0 mi West 4.6 mph - N/A   Clear
8:35 PM 10.4 °F 2.2 °F 5.0 °F 79% 29.99 in 10.0 mi West 4.6 mph - N/A   Clear
8:55 PM 10.4 °F 4.0 °F 5.0 °F 79% 30.00 in 10.0 mi West 3.5 mph - N/A   Clear
9:15 PM 10.4 °F - 5.0 °F 79% 29.99 in 10.0 mi Calm Calm - N/A   Clear
9:35 PM 10.4 °F - 6.8 °F 85% 29.99 in 10.0 mi Calm Calm - N/A   Clear
9:55 PM 8.6 °F 2.0 °F 5.0 °F 85% 29.98 in 10.0 mi SW 3.5 mph - N/A   Clear
10:15 PM 8.6 °F - 5.0 °F 85% 29.97 in 10.0 mi Calm Calm - N/A   Clear
10:35 PM 8.6 °F 2.0 °F 5.0 °F 85% 29.96 in 10.0 mi SSE 3.5 mph - N/A   Clear
10:55 PM 10.4 °F 4.0 °F 5.0 °F 79% 29.96 in 10.0 mi SSE 3.5 mph - N/A   Clear
11:15 PM 6.8 °F -0.1 °F 1.4 °F 79% 29.96 in 10.0 mi SE 3.5 mph - N/A   Clear
11:35 PM 6.8 °F -2.0 °F 1.4 °F 79% 29.96 in 10.0 mi SSE 4.6 mph - N/A   Clear
11:55 PM 6.8 °F -3.5 °F 1.4 °F 79% 29.95 in 10.0 mi SSE 5.8 mph - N/A   Clear